GW0953 Weather Reports


time (UTC)temp
C
wind
direction
speed
KPH
gust
KPH
rain 1hr
cm
rain 24hr
cm
rain mn
cm
humidity
%
barometer
mb
20260507211657 17 278 8.0 9.7 0.00 0.00 0.00 35 1015.4
20260507211153 17 279 6.4 8.0 0.00 0.00 0.00 34 1015.1
20260507210650 17 272 11.3 16.1 0.00 0.00 0.00 34 1015.3
20260507210147 18 315 1.6 1.6 0.00 0.00 0.00 34 1015.3
20260507205643 17 340 3.2 8.0 0.00 0.00 0.00 33 1015.1
20260507205140 17 255 4.8 8.0 0.00 0.00 0.00 34 1015.3
20260507204636 18 326 8.0 11.3 0.00 0.00 0.00 33 1015.3
20260507204134 18 328 3.2 3.2 0.00 0.00 0.00 34 1015.4
20260507203632 18 276 4.8 4.8 0.00 0.00 0.00 34 1015.2
20260507203129 17 327 9.7 12.9 0.00 0.00 0.00 33 1015.3
20260507202625 17 248 4.8 8.0 0.00 0.00 0.00 35 1015.4
20260507202121 17 335 3.2 3.2 0.00 0.00 0.00 34 1015.7
20260507201616 17 314 3.2 3.2 0.00 0.00 0.00 35 1015.4
20260507201114 19 265 4.8 8.0 0.00 0.00 0.00 32 1015.5
20260507200609 18 319 3.2 3.2 0.00 0.00 0.00 32 1015.6
20260507200105 20 187 4.8 4.8 0.00 0.00 0.00 31 1015.6
20260507195603 19 263 4.8 4.8 0.00 0.00 0.00 33 1015.7
20260507195100 18 347 3.2 4.8 0.00 0.00 0.00 35 1015.4
20260507194556 19 243 4.8 4.8 0.00 0.00 0.00 32 1015.6
20260507194052 19 221 1.6 3.2 0.00 0.00 0.00 32 1015.7
20260507193549 18 245 4.8 4.8 0.00 0.00 0.00 33 1015.7
20260507193046 17 10 3.2 4.8 0.00 0.00 0.00 34 1015.7
20260507192542 18 342 6.4 8.0 0.00 0.00 0.00 33 1015.8
20260507192039 18 11 3.2 3.2 0.00 0.00 0.00 35 1015.5
20260507191534 18 321 3.2 4.8 0.00 0.00 0.00 31 1015.6
20260507191032 17 261 4.8 4.8 0.00 0.00 0.00 32 1015.5
20260507190529 18 329 4.8 4.8 0.00 0.00 0.00 32 1015.6
20260507190028 17 1 1.6 1.6 0.00 0.00 0.00 35 1015.8
20260507185526 18 53 8.0 11.3 0.00 0.00 0.00 33 1015.5
20260507185022 17 16 1.6 1.6 0.00 0.00 0.00 33 1015.9
20260507184521 17 37 1.6 1.6 0.00 0.00 0.00 34 1015.9
20260507184018 18 281 14.5 14.5 0.00 0.00 0.00 31 1016.0
20260507183513 18 346 3.2 3.2 0.00 0.00 0.00 31 1016.0
20260507183011 18 296 4.8 8.0 0.00 0.00 0.00 31 1015.8
20260507182507 18 156 4.8 4.8 0.00 0.00 0.00 31 1015.7
20260507182003 18 252 4.8 4.8 0.00 0.00 0.00 32 1016.0
20260507181500 17 299 6.4 12.9 0.00 0.00 0.00 32 1015.8
20260507180956 17 2 3.2 3.2 0.00 0.00 0.00 31 1015.8
20260507180453 17 334 1.6 1.6 0.00 0.00 0.00 34 1016.0
20260507175949 18 267 3.2 4.8 0.00 0.00 0.00 29 1015.9
20260507175446 18 31 1.6 1.6 0.00 0.00 0.00 32 1016.2
20260507174944 18 355 3.2 3.2 0.00 0.00 0.00 35 1016.3
20260507174440 17 101 3.2 3.2 0.00 0.00 0.00 32 1016.2
20260507173938 17 1 0.0 1.6 0.00 0.00 0.00 31 1016.4
20260507173435 18 300 1.6 3.2 0.00 0.00 0.00 37 1016.4
20260507172932 17 131 4.8 8.0 0.00 0.00 0.00 34 1016.4
20260507172428 17 195 3.2 3.2 0.00 0.00 0.00 34 1016.5
20260507171925 16 10 3.2 3.2 0.00 0.00 0.00 35 1016.7
20260507171421 16 322 1.6 1.6 0.00 0.00 0.00 37 1016.7
20260507170918 17 11 4.8 4.8 0.00 0.00 0.00 34 1016.6
20260507170415 17 255 3.2 4.8 0.00 0.00 0.00 33 1017.0
20260507165911 16 335 4.8 8.0 0.00 0.00 0.00 34 1017.1
20260507165407 16 52 4.8 4.8 0.00 0.00 0.00 34 1017.2
20260507164903 16 238 3.2 4.8 0.00 0.00 0.00 35 1017.3
20260507164400 16 278 4.8 8.0 0.00 0.00 0.00 34 1017.4
20260507163857 17 234 3.2 4.8 0.00 0.00 0.00 33 1017.2
20260507163354 16 8 1.6 1.6 0.00 0.00 0.00 32 1017.4
20260507162851 16 338 3.2 3.2 0.00 0.00 0.00 34 1017.5
20260507162346 17 333 0.0 1.6 0.00 0.00 0.00 34 1017.6
20260507161844 16 85 4.8 8.0 0.00 0.00 0.00 36 1017.7
20260507161340 17 323 1.6 3.2 0.00 0.00 0.00 35 1017.6
20260507160837 16 122 6.4 8.0 0.00 0.00 0.00 36 1017.7
20260507160332 16 331 3.2 3.2 0.00 0.00 0.00 36 1017.5
20260507155829 16 249 11.3 12.9 0.00 0.00 0.00 35 1017.7
20260507155325 16 138 3.2 3.2 0.00 0.00 0.00 37 1017.8
20260507154822 16 129 4.8 4.8 0.00 0.00 0.00 37 1017.9
20260507154319 15 308 3.2 4.8 0.00 0.00 0.00 38 1017.9
20260507153816 15 236 1.6 3.2 0.00 0.00 0.00 38 1018.0
20260507153312 15 222 3.2 3.2 0.00 0.00 0.00 38 1018.2
20260507152809 15 7 3.2 3.2 0.00 0.00 0.00 38 1018.2
20260507152306 15 15 0.0 1.6 0.00 0.00 0.00 42 1018.3
20260507151801 15 302 1.6 3.2 0.00 0.00 0.00 36 1018.2
20260507151257 15 354 0.0 1.6 0.00 0.00 0.00 38 1018.2
20260507150754 15 307 8.0 11.3 0.00 0.00 0.00 37 1018.4
20260507150251 15 351 1.6 3.2 0.00 0.00 0.00 39 1018.4
20260507145747 15 139 6.4 9.7 0.00 0.00 0.00 40 1018.4
20260507145244 15 357 1.6 3.2 0.00 0.00 0.00 43 1018.5
20260507144741 15 34 1.6 3.2 0.00 0.00 0.00 43 1018.7
20260507144239 15 326 1.6 1.6 0.00 0.00 0.00 38 1018.8
20260507143735 15 55 4.8 8.0 0.00 0.00 0.00 40 1018.8
20260507143232 15 134 4.8 4.8 0.00 0.00 0.00 37 1019.1
20260507142728 15 296 3.2 3.2 0.00 0.00 0.00 37 1018.9
20260507142225 15 341 1.6 1.6 0.00 0.00 0.00 40 1019.1
20260507141721 15 332 0.0 1.6 0.00 0.00 0.00 40 1019.4
20260507141219 15 357 3.2 3.2 0.00 0.00 0.00 40 1019.1
20260507140714 14 132 4.8 4.8 0.00 0.00 0.00 41 1019.4
20260507140212 13 303 3.2 3.2 0.00 0.00 0.00 42 1019.8
20260507135709 13 231 3.2 3.2 0.00 0.00 0.00 44 1019.8
20260507135206 13 316 3.2 3.2 0.00 0.00 0.00 46 1019.6
20260507134702 14 26 0.0 1.6 0.00 0.00 0.00 49 1020.0
20260507134159 13 9 0.0 0.0 0.00 0.00 0.00 48 1019.7
20260507133654 13 358 1.6 1.6 0.00 0.00 0.00 50 1019.8
20260507133152 13 204 1.6 1.6 0.00 0.00 0.00 52 1020.0
20260507132649 13 350 1.6 1.6 0.00 0.00 0.00 54 1019.9
20260507132145 12 56 3.2 3.2 0.00 0.00 0.00 52 1020.0
20260507131643 12 119 3.2 3.2 0.00 0.00 0.00 51 1020.2
20260507131140 13 27 1.6 3.2 0.00 0.00 0.00 48 1020.1
20260507130636 12 319 1.6 1.6 0.00 0.00 0.00 53 1020.2
20260507130134 12 14 0.0 1.6 0.00 0.00 0.00 52 1020.1
20260507125633 12 194 3.2 3.2 0.00 0.00 0.00 55 1020.2
20260507125130 12 107 4.8 4.8 0.00 0.00 0.00 51 1020.3
20260507124626 11 5 0.0 0.0 0.00 0.00 0.00 54 1020.4
20260507124124 11 6 0.0 0.0 0.00 0.00 0.00 59 1020.3
20260507123622 11 8 0.0 1.6 0.00 0.00 0.00 60 1020.1
20260507123119 10 3 0.0 0.0 0.00 0.00 0.00 64 1020.2
20260507122614 10 7 0.0 0.0 0.00 0.00 0.00 66 1020.2
20260507122110 10 355 0.0 0.0 0.00 0.00 0.00 67 1020.2
20260507121606 10 346 0.0 0.0 0.00 0.00 0.00 68 1020.2
20260507121102 10 338 0.0 0.0 0.00 0.00 0.00 71 1020.1
20260507120558 10 300 1.6 1.6 0.00 0.00 0.00 70 1020.1
20260507120055 10 340 0.0 0.0 0.00 0.00 0.00 69 1020.1
20260507115551 10 336 0.0 0.0 0.00 0.00 0.00 72 1020.1
20260507115048 9 350 0.0 0.0 0.00 0.00 0.00 76 1019.9
20260507114543 9 334 0.0 0.0 0.00 0.00 0.00 76 1020.2
20260507114041 9 329 0.0 0.0 0.00 0.00 0.00 78 1020.2
20260507113538 9 334 0.0 0.0 0.00 0.00 0.00 78 1020.1
20260507113035 8 342 0.0 0.0 0.00 0.00 0.00 75 1020.1
20260507112533 8 336 0.0 1.6 0.00 0.00 0.00 82 1020.3
20260507112029 8 341 0.0 0.0 0.00 0.00 0.00 83 1019.8
20260507111527 8 336 0.0 0.0 0.00 0.00 0.00 79 1019.8
20260507111023 8 334 0.0 0.0 0.00 0.00 0.00 81 1019.8
20260507110519 8 339 0.0 0.0 0.00 0.00 0.00 79 1019.8
20260507110016 8 343 0.0 0.0 0.00 0.00 0.00 81 1019.7
20260507105513 8 327 0.0 0.0 0.00 0.00 0.00 81 1019.6
20260507105009 8 337 0.0 0.0 0.00 0.00 0.00 82 1019.6
20260507104507 8 331 0.0 0.0 0.00 0.00 0.00 80 1019.6
20260507104003 8 337 0.0 0.0 0.00 0.00 0.00 82 1019.5
20260507103500 8 324 1.6 1.6 0.00 0.00 0.00 82 1019.4
20260507102955 8 331 0.0 0.0 0.00 0.00 0.00 80 1019.1
20260507102452 8 333 0.0 0.0 0.00 0.00 0.00 81 1019.5
20260507101948 8 350 0.0 0.0 0.00 0.00 0.00 79 1019.1
20260507101443 8 350 0.0 0.0 0.00 0.00 0.00 80 1019.1
20260507100940 8 326 0.0 0.0 0.00 0.00 0.00 79 1019.0
20260507100438 8 348 0.0 0.0 0.00 0.00 0.00 78 1019.0
20260507095936 8 354 0.0 0.0 0.00 0.00 0.00 77 1019.1
20260507095433 8 316 1.6 3.2 0.00 0.00 0.00 75 1019.4
20260507094930 8 333 0.0 0.0 0.00 0.00 0.00 74 1019.4
20260507094426 8 333 0.0 0.0 0.00 0.00 0.00 76 1019.4
20260507093923 8 332 1.6 1.6 0.00 0.00 0.00 76 1019.2
20260507093421 8 338 0.0 0.0 0.00 0.00 0.00 79 1019.4
20260507092920 8 340 0.0 1.6 0.00 0.00 0.00 77 1019.0
20260507092415 8 334 1.6 1.6 0.00 0.00 0.00 75 1018.8
20260507091912 9 336 0.0 0.0 0.00 0.00 0.00 76 1019.0
20260507091408 10 333 1.6 1.6 0.00 0.00 0.00 71 1019.0
20260507090904 10 341 1.6 1.6 0.00 0.00 0.00 60 1019.0
20260507090401 10 53 1.6 3.2 0.00 0.00 0.00 62 1019.0
20260507085858 9 356 0.0 1.6 0.00 0.00 0.00 65 1019.1
20260507085354 10 21 1.6 1.6 0.00 0.00 0.00 67 1019.0
20260507084852 10 31 1.6 1.6 0.00 0.00 0.00 66 1018.8
20260507084348 10 357 0.0 0.0 0.00 0.00 0.00 66 1019.0
20260507083845 10 7 1.6 1.6 0.00 0.00 0.00 65 1019.0
20260507083342 10 2 1.6 1.6 0.00 0.00 0.00 66 1018.9
20260507082838 10 355 0.0 0.0 0.00 0.00 0.00 67 1019.1
20260507082333 9 346 0.0 0.0 0.00 0.00 0.00 74 1018.6
20260507081831 10 345 0.0 0.0 0.00 0.00 0.00 77 1018.9
20260507081327 10 345 0.0 0.0 0.00 0.00 0.00 74 1018.7
20260507080824 10 344 0.0 0.0 0.00 0.00 0.00 71 1018.7
20260507080320 10 346 0.0 1.6 0.00 0.00 0.00 70 1018.9
20260507075815 10 347 0.0 0.0 0.00 0.00 0.00 74 1018.7
20260507075312 10 345 0.0 0.0 0.00 0.00 0.00 70 1018.7
20260507074809 10 342 0.0 0.0 0.00 0.00 0.00 69 1018.7
20260507074306 10 344 0.0 0.0 0.00 0.00 0.00 68 1018.5
20260507073803 10 351 0.0 0.0 0.00 0.00 0.00 71 1018.9
20260507073300 10 345 0.0 0.0 0.00 0.00 0.00 72 1018.8
20260507072757 10 353 0.0 0.0 0.00 0.00 0.00 70 1018.7
20260507072255 10 348 0.0 0.0 0.00 0.00 0.00 74 1018.6
20260507071752 10 348 0.0 0.0 0.00 0.00 0.00 77 1018.6
20260507071248 10 349 0.0 0.0 0.00 0.00 0.00 74 1018.6
20260507070745 10 332 0.0 1.6 0.00 0.00 0.00 77 1018.7
20260507070242 10 353 1.6 1.6 0.00 0.00 0.00 82 1018.6
20260507065738 10 343 1.6 1.6 0.00 0.00 0.00 76 1018.8
20260507065235 10 346 0.0 0.0 0.00 0.00 0.00 74 1018.7
20260507064733 10 353 0.0 0.0 0.00 0.00 0.00 74 1018.6
20260507064232 10 353 0.0 0.0 0.00 0.00 0.00 75 1018.6
20260507063728 10 2 0.0 1.6 0.00 0.00 0.00 76 1018.6
20260507063225 10 13 1.6 1.6 0.00 0.00 0.00 75 1018.9
20260507062722 11 350 0.0 0.0 0.00 0.00 0.00 79 1018.8
20260507062220 11 8 1.6 1.6 0.00 0.00 0.00 77 1018.4
20260507061717 11 27 1.6 1.6 0.00 0.00 0.00 78 1018.6
20260507061215 11 74 3.2 3.2 0.00 0.00 0.00 79 1018.9
20260507060713 11 56 0.0 0.0 0.00 0.00 0.00 81 1018.9
20260507060209 11 20 1.6 1.6 0.00 0.00 0.00 82 1019.0
20260507055705 11 283 1.6 1.6 0.00 0.00 0.00 83 1018.9
20260507055201 11 74 3.2 3.2 0.00 0.00 0.00 83 1018.8
20260507054657 11 24 1.6 3.2 0.00 0.00 0.00 83 1018.9
20260507054154 11 344 0.0 0.0 0.00 0.00 0.00 84 1019.0
20260507053652 11 359 0.0 0.0 0.00 0.00 0.00 84 1018.9
20260507053150 11 349 0.0 1.6 0.00 0.00 0.00 83 1018.9
20260507052648 11 358 0.0 1.6 0.00 0.00 0.00 81 1019.1
20260507052144 11 351 0.0 1.6 0.00 0.00 0.00 82 1019.1
20260507051642 11 355 1.6 1.6 0.00 0.00 0.00 82 1018.9
20260507051138 11 338 0.0 0.0 0.00 0.00 0.00 84 1018.9
20260507050635 10 342 0.0 0.0 0.00 0.00 0.00 88 1019.1
20260507050132 11 334 0.0 1.6 0.00 0.00 0.00 88 1019.1
20260507045629 11 345 0.0 0.0 0.00 0.00 0.00 88 1018.7
20260507045126 11 337 0.0 0.0 0.00 0.00 0.00 86 1018.9
20260507044622 11 345 0.0 0.0 0.00 0.00 0.00 84 1019.1
20260507044120 11 340 0.0 0.0 0.00 0.00 0.00 85 1019.0
20260507043615 10 348 0.0 0.0 0.00 0.00 0.00 84 1019.0
20260507043107 11 332 1.6 1.6 0.00 0.00 0.00 90 1019.0
20260507042602 11 331 0.0 0.0 0.00 0.00 0.00 89 1018.8
20260507042058 10 351 0.0 0.0 0.00 0.00 0.00 92 1018.7
20260507041555 10 346 0.0 0.0 0.00 0.00 0.00 92 1018.9
20260507041052 10 347 0.0 0.0 0.00 0.00 0.00 91 1019.1
20260507040549 10 334 0.0 0.0 0.00 0.00 0.00 91 1018.8
20260507040045 11 341 0.0 0.0 0.00 0.00 0.00 90 1019.0
20260507035541 11 327 0.0 0.0 0.00 0.53 0.53 90 1018.8
20260507035038 11 340 0.0 0.0 0.00 0.53 0.53 89 1018.9
20260507034534 11 343 0.0 0.0 0.00 0.53 0.53 87 1019.0
20260507034032 11 136 3.2 3.2 0.00 0.53 0.53 88 1019.0
20260507033530 11 340 0.0 0.0 0.00 0.53 0.53 87 1019.1
20260507033027 11 342 0.0 0.0 0.00 0.53 0.53 85 1019.2
20260507032524 11 341 0.0 0.0 0.00 0.53 0.53 86 1019.0
20260507032020 11 5 0.0 1.6 0.00 0.53 0.53 82 1018.9
20260507031516 11 60 4.8 4.8 0.00 0.53 0.53 82 1018.9
20260507031014 11 1 1.6 3.2 0.00 0.53 0.53 83 1019.2
20260507030511 11 342 0.0 0.0 0.00 0.53 0.53 82 1018.9
20260507030009 11 358 0.0 1.6 0.00 0.53 0.53 81 1018.8
20260507025505 11 307 1.6 1.6 0.00 0.53 0.53 82 1018.6
20260507025003 11 349 0.0 1.6 0.00 0.53 0.53 83 1018.8
20260507024500 11 64 3.2 3.2 0.00 0.53 0.53 81 1019.4
20260507023956 11 351 0.0 0.0 0.00 0.53 0.53 83 1019.1
20260507023453 11 279 3.2 3.2 0.00 0.53 0.53 82 1019.1
20260507022950 11 339 0.0 1.6 0.00 0.53 0.53 84 1019.1
20260507022447 11 341 0.0 0.0 0.00 0.53 0.53 82 1018.8
20260507021942 11 349 0.0 0.0 0.00 0.53 0.53 82 1018.8
20260507021438 11 337 1.6 1.6 0.00 0.53 0.53 83 1018.9
20260507020936 11 338 0.0 0.0 0.00 0.53 0.53 83 1018.7
20260507020432 11 351 0.0 0.0 0.00 0.53 0.53 82 1018.6
20260507015929 11 15 3.2 3.2 0.00 0.53 0.53 83 1018.5
20260507015428 11 27 1.6 3.2 0.00 0.53 0.53 83 1018.7
20260507014924 11 21 1.6 1.6 0.00 0.53 0.53 83 1018.8
20260507014421 11 352 0.0 0.0 0.00 0.53 0.53 84 1019.4
20260507013917 11 335 3.2 3.2 0.00 0.53 0.53 84 1019.0
20260507013414 11 323 1.6 3.2 0.00 0.53 0.53 85 1018.5
20260507012912 11 17 1.6 1.6 0.00 0.53 0.53 86 1018.2
20260507012408 11 45 3.2 3.2 0.00 0.53 0.53 87 1018.4
20260507011905 11 52 4.8 4.8 0.00 0.53 0.53 87 1018.3
20260507011402 11 23 3.2 3.2 0.00 0.53 0.53 86 1018.4
20260507010901 12 348 1.6 1.6 0.00 0.53 0.53 88 1018.4
20260507010357 12 88 1.6 3.2 0.00 0.53 0.53 87 1018.6
20260507005855 12 341 1.6 1.6 0.00 0.53 0.53 87 1018.4
20260507005351 12 28 1.6 1.6 0.00 0.53 0.53 86 1018.3
20260507004848 12 16 1.6 1.6 0.00 0.53 0.53 88 1018.6
20260507004344 12 347 0.0 0.0 0.00 0.53 0.53 87 1018.2
20260507003842 12 356 0.0 0.0 0.00 0.53 0.53 88 1018.2
20260507003332 12 321 0.0 0.0 0.00 0.53 0.53 87 1017.9
20260507002827 12 343 0.0 0.0 0.00 0.53 0.53 87 1018.0
20260507002323 12 354 1.6 1.6 0.00 0.53 0.53 87 1018.4
20260507001821 12 310 3.2 3.2 0.00 0.53 0.53 86 1018.8
20260507001318 12 281 0.0 1.6 0.00 0.53 0.53 86 1018.5
20260507000814 12 356 0.0 1.6 0.00 0.53 0.53 86 1018.3
20260507000310 12 315 1.6 1.6 0.00 0.53 0.53 85 1018.3
20260506235806 12 332 0.0 1.6 0.00 0.53 0.53 85 1018.2
20260506235302 12 336 1.6 1.6 0.00 0.53 0.53 85 1018.2
20260506234753 12 282 3.2 3.2 0.00 0.53 0.53 85 1018.2
20260506234251 12 294 3.2 3.2 0.00 0.53 0.53 86 1018.1
20260506233749 12 341 0.0 0.0 0.00 0.53 0.53 86 1017.9
20260506233245 13 45 4.8 4.8 0.00 0.53 0.53 85 1017.8
20260506232742 13 325 0.0 0.0 0.00 0.53 0.53 84 1017.9
20260506232236 13 314 1.6 1.6 0.00 0.53 0.53 83 1018.1
20260506231734 13 332 0.0 1.6 0.00 0.53 0.53 83 1018.0
20260506231232 13 359 1.6 1.6 0.00 0.53 0.53 83 1017.6
20260506230729 13 324 3.2 3.2 0.00 0.53 0.53 82 1017.4
20260506230225 13 13 1.6 1.6 0.00 0.53 0.53 82 1017.5
20260506225722 13 330 3.2 3.2 0.00 0.53 0.53 83 1017.1
20260506225219 13 326 0.0 1.6 0.00 0.53 0.53 82 1017.3
20260506224715 13 343 0.0 0.0 0.00 0.53 0.53 81 1017.2
20260506224212 13 319 1.6 1.6 0.00 0.53 0.53 81 1017.3
20260506223709 14 358 0.0 0.0 0.00 0.53 0.53 81 1017.2
20260506223204 14 347 0.0 0.0 0.00 0.53 0.53 81 1017.1
20260506222702 14 355 1.6 3.2 0.00 0.53 0.53 80 1017.3
20260506222157 14 329 0.0 1.6 0.00 0.53 0.53 80 1017.0
20260506221655 14 341 0.0 1.6 0.00 0.53 0.53 81 1017.1
20260506221153 14 290 3.2 3.2 0.00 0.53 0.53 80 1017.4
20260506220650 14 249 4.8 4.8 0.00 0.53 0.53 80 1017.1
20260506220145 15 348 0.0 1.6 0.00 0.53 0.53 80 1017.1
20260506215642 15 287 3.2 3.2 0.00 0.53 0.53 80 1017.0
20260506215137 15 334 1.6 1.6 0.00 0.53 0.53 79 1017.0
20260506214634 15 301 0.0 1.6 0.00 0.53 0.53 80 1016.9
20260506214132 15 313 4.8 4.8 0.00 0.53 0.53 79 1016.8
20260506213630 15 4 0.0 1.6 0.00 0.53 0.53 79 1016.7
20260506213127 15 315 6.4 8.0 0.00 0.53 0.53 80 1016.5
20260506212624 15 301 3.2 3.2 0.00 0.53 0.53 80 1016.5
20260506212119 15 294 9.7 11.3 0.00 0.53 0.53 79 1016.0